owner,sensor,date,latitude,longitude,vertical_datum,wind_speed,wind_to_direction,wind_speed_of_gust,qcFlag 
TCOON,ioos:station:TCOON:518:1,2014-04-01T00:00:00Z,29.5150,-94.5133,0.0,4.5,89.0,5.9,'1111122,1111122,1111122' 
TCOON,ioos:station:TCOON:518:1,2014-04-01T00:06:00Z,29.5150,-94.5133,0.0,5.0,84.0,6.0,'11111222,11111222,11111222' 
TCOON,ioos:station:TCOON:518:1,2014-04-01T00:12:00Z,29.5150,-94.5133,0.0,4.9,87.0,6.5,'11111222,11111222,11111222' 
TCOON,ioos:station:TCOON:518:1,2014-04-01T00:18:00Z,29.5150,-94.5133,0.0,4.9,94.0,5.9,'11111222,11111222,11111222' 
TCOON,ioos:station:TCOON:518:1,2014-04-01T00:24:00Z,29.5150,-94.5133,0.0,5.0,92.0,5.9,'11111222,11111222,11111222' 
TCOON,ioos:station:TCOON:518:1,2014-04-01T00:30:00Z,29.5150,-94.5133,0.0,4.8,90.0,5.6,'11111222,11111222,11111222' 
TCOON,ioos:station:TCOON:518:1,2014-04-01T00:36:00Z,29.5150,-94.5133,0.0,4.7,92.0,5.8,'11111222,11111222,11111222' 
TCOON,ioos:station:TCOON:518:1,2014-04-01T00:42:00Z,29.5150,-94.5133,0.0,4.6,92.0,5.7,'11111222,11111222,11111222' 
TCOON,ioos:station:TCOON:518:1,2014-04-01T00:48:00Z,29.5150,-94.5133,0.0,4.6,89.0,5.3,'11111222,11111222,11111222' 
TCOON,ioos:station:TCOON:518:1,2014-04-01T00:54:00Z,29.5150,-94.5133,0.0,4.9,95.0,5.5,'11111222,11111222,11111222' 
TCOON,ioos:station:TCOON:518:1,2014-04-01T01:00:00Z,29.5150,-94.5133,0.0,4.9,95.0,5.5,'1111122,1111122,1111122' 
TCOON,ioos:station:TCOON:518:1,2014-04-01T01:06:00Z,29.5150,-94.5133,0.0,5.6,97.0,6.4,'11111222,11111222,11111222' 
TCOON,ioos:station:TCOON:518:1,2014-04-01T01:12:00Z,29.5150,-94.5133,0.0,5.2,96.0,6.3,'11111222,11111222,11111222' 
TCOON,ioos:station:TCOON:518:1,2014-04-01T01:18:00Z,29.5150,-94.5133,0.0,5.4,97.0,6.0,'11111222,11111222,11111222' 
TCOON,ioos:station:TCOON:518:1,2014-04-01T01:24:00Z,29.5150,-94.5133,0.0,5.2,96.0,5.9,'11111222,11111222,11111222' 
TCOON,ioos:station:TCOON:518:1,2014-04-01T01:30:00Z,29.5150,-94.5133,0.0,5.2,96.0,6.2,'11111222,11111222,11111222' 
TCOON,ioos:station:TCOON:518:1,2014-04-01T01:36:00Z,29.5150,-94.5133,0.0,5.4,97.0,6.8,'11111222,11111222,11111222' 
TCOON,ioos:station:TCOON:518:1,2014-04-01T01:42:00Z,29.5150,-94.5133,0.0,5.4,97.0,6.4,'11111222,11111222,11111222' 
TCOON,ioos:station:TCOON:518:1,2014-04-01T01:48:00Z,29.5150,-94.5133,0.0,5.2,97.0,6.3,'11111222,11111222,11111222' 
TCOON,ioos:station:TCOON:518:1,2014-04-01T01:54:00Z,29.5150,-94.5133,0.0,5.4,98.0,6.2,'11111222,11111222,11111222' 
TCOON,ioos:station:TCOON:518:1,2014-04-01T02:00:00Z,29.5150,-94.5133,0.0,5.4,98.0,6.2,'1111122,1111122,1111122' 
TCOON,ioos:station:TCOON:518:1,2014-04-01T02:06:00Z,29.5150,-94.5133,0.0,5.1,100.0,6.1,'11111222,11111222,11111222' 
TCOON,ioos:station:TCOON:518:1,2014-04-01T02:12:00Z,29.5150,-94.5133,0.0,5.1,100.0,6.1,'11111222,11111222,11111222' 
TCOON,ioos:station:TCOON:518:1,2014-04-01T02:18:00Z,29.5150,-94.5133,0.0,5.4,99.0,6.1,'11111222,11111222,11111222' 
TCOON,ioos:station:TCOON:518:1,2014-04-01T02:24:00Z,29.5150,-94.5133,0.0,5.3,100.0,6.4,'11111222,11111222,11111222' 
TCOON,ioos:station:TCOON:518:1,2014-04-01T02:30:00Z,29.5150,-94.5133,0.0,5.3,98.0,6.2,'11111222,11111222,11111222' 
TCOON,ioos:station:TCOON:518:1,2014-04-01T02:36:00Z,29.5150,-94.5133,0.0,5.3,101.0,6.2,'11111222,11111222,11111222' 
TCOON,ioos:station:TCOON:518:1,2014-04-01T02:42:00Z,29.5150,-94.5133,0.0,5.1,97.0,5.9,'11111222,11111222,11111222' 
TCOON,ioos:station:TCOON:518:1,2014-04-01T02:48:00Z,29.5150,-94.5133,0.0,5.4,96.0,6.7,'11111222,11111222,11111222' 
TCOON,ioos:station:TCOON:518:1,2014-04-01T02:54:00Z,29.5150,-94.5133,0.0,5.4,98.0,6.3,'11111222,11111222,11111222' 
TCOON,ioos:station:TCOON:518:1,2014-04-01T03:00:00Z,29.5150,-94.5133,0.0,5.4,98.0,6.3,'1111122,1111122,1111122' 
TCOON,ioos:station:TCOON:518:1,2014-04-01T03:06:00Z,29.5150,-94.5133,0.0,5.8,99.0,6.7,'11111222,11111222,11111222' 
TCOON,ioos:station:TCOON:518:1,2014-04-01T03:12:00Z,29.5150,-94.5133,0.0,4.9,93.0,6.9,'11111222,11111222,11111222' 
TCOON,ioos:station:TCOON:518:1,2014-04-01T03:18:00Z,29.5150,-94.5133,0.0,5.3,95.0,6.2,'11111222,11111222,11111222' 
TCOON,ioos:station:TCOON:518:1,2014-04-01T03:24:00Z,29.5150,-94.5133,0.0,5.0,96.0,6.3,'11111222,11111222,11111222' 
TCOON,ioos:station:TCOON:518:1,2014-04-01T03:30:00Z,29.5150,-94.5133,0.0,6.0,99.0,6.7,'11111222,11111222,11111222' 
TCOON,ioos:station:TCOON:518:1,2014-04-01T03:36:00Z,29.5150,-94.5133,0.0,6.0,103.0,6.8,'11111222,11111222,11111222' 
TCOON,ioos:station:TCOON:518:1,2014-04-01T03:42:00Z,29.5150,-94.5133,0.0,5.8,103.0,7.3,'11111222,11111222,11111222' 
TCOON,ioos:station:TCOON:518:1,2014-04-01T03:48:00Z,29.5150,-94.5133,0.0,5.4,104.0,7.1,'11111222,11111222,11111222' 
TCOON,ioos:station:TCOON:518:1,2014-04-01T03:54:00Z,29.5150,-94.5133,0.0,6.1,101.0,6.8,'11111222,11111222,11111222' 
TCOON,ioos:station:TCOON:518:1,2014-04-01T04:00:00Z,29.5150,-94.5133,0.0,6.1,101.0,6.8,'1111122,1111122,1111122' 
TCOON,ioos:station:TCOON:518:1,2014-04-01T04:06:00Z,29.5150,-94.5133,0.0,5.8,100.0,6.8,'11111222,11111222,11111222' 
TCOON,ioos:station:TCOON:518:1,2014-04-01T04:12:00Z,29.5150,-94.5133,0.0,6.3,100.0,7.1,'11111222,11111222,11111222' 
TCOON,ioos:station:TCOON:518:1,2014-04-01T04:18:00Z,29.5150,-94.5133,0.0,6.6,99.0,7.7,'11111222,11111222,11111222' 
TCOON,ioos:station:TCOON:518:1,2014-04-01T04:24:00Z,29.5150,-94.5133,0.0,7.0,100.0,8.1,'11111222,11111222,11111222' 
TCOON,ioos:station:TCOON:518:1,2014-04-01T04:30:00Z,29.5150,-94.5133,0.0,6.6,96.0,7.9,'11111222,11111222,11111222' 
TCOON,ioos:station:TCOON:518:1,2014-04-01T04:36:00Z,29.5150,-94.5133,0.0,6.0,95.0,7.0,'11111222,11111222,11111222' 
TCOON,ioos:station:TCOON:518:1,2014-04-01T04:42:00Z,29.5150,-94.5133,0.0,7.2,97.0,7.9,'11111222,11111222,11111222' 
TCOON,ioos:station:TCOON:518:1,2014-04-01T04:48:00Z,29.5150,-94.5133,0.0,7.5,99.0,8.7,'11111222,11111222,11111222' 
TCOON,ioos:station:TCOON:518:1,2014-04-01T04:54:00Z,29.5150,-94.5133,0.0,7.5,99.0,8.8,'11111222,11111222,11111222' 
TCOON,ioos:station:TCOON:518:1,2014-04-01T05:00:00Z,29.5150,-94.5133,0.0,7.5,99.0,8.8,'1111122,1111122,1111122' 
TCOON,ioos:station:TCOON:518:1,2014-04-01T05:06:00Z,29.5150,-94.5133,0.0,7.1,100.0,8.8,'11111222,11111222,11111222' 
TCOON,ioos:station:TCOON:518:1,2014-04-01T05:12:00Z,29.5150,-94.5133,0.0,7.1,103.0,8.3,'11111222,11111222,11111222' 
TCOON,ioos:station:TCOON:518:1,2014-04-01T05:18:00Z,29.5150,-94.5133,0.0,6.7,100.0,8.7,'11111222,11111222,11111222' 
TCOON,ioos:station:TCOON:518:1,2014-04-01T05:24:00Z,29.5150,-94.5133,0.0,7.0,104.0,8.1,'11111222,11111222,11111222' 
TCOON,ioos:station:TCOON:518:1,2014-04-01T05:30:00Z,29.5150,-94.5133,0.0,7.8,106.0,8.9,'11111222,11111222,11111222' 
TCOON,ioos:station:TCOON:518:1,2014-04-01T05:36:00Z,29.5150,-94.5133,0.0,7.0,103.0,8.5,'11111222,11111222,11111222' 
TCOON,ioos:station:TCOON:518:1,2014-04-01T05:42:00Z,29.5150,-94.5133,0.0,6.7,105.0,8.1,'11111222,11111222,11111222' 
TCOON,ioos:station:TCOON:518:1,2014-04-01T05:48:00Z,29.5150,-94.5133,0.0,6.9,108.0,8.3,'11111222,11111222,11111222' 
TCOON,ioos:station:TCOON:518:1,2014-04-01T05:54:00Z,29.5150,-94.5133,0.0,6.9,108.0,8.2,'11111222,11111222,11111222' 
TCOON,ioos:station:TCOON:518:1,2014-04-01T06:00:00Z,29.5150,-94.5133,0.0,6.9,108.0,8.2,'11111222,11111222,11111222' 
TCOON,ioos:station:TCOON:518:1,2014-04-01T06:06:00Z,29.5150,-94.5133,0.0,6.8,108.0,7.6,'11111222,11111222,11111222' 
TCOON,ioos:station:TCOON:518:1,2014-04-01T06:12:00Z,29.5150,-94.5133,0.0,6.8,108.0,7.6,'1111122,1111122,1111122' 
TCOON,ioos:station:TCOON:518:1,2014-04-01T06:18:00Z,29.5150,-94.5133,0.0,6.6,109.0,7.7,'11111222,11111222,11111222' 
TCOON,ioos:station:TCOON:518:1,2014-04-01T06:24:00Z,29.5150,-94.5133,0.0,6.7,109.0,7.7,'11111222,11111222,11111222' 
TCOON,ioos:station:TCOON:518:1,2014-04-01T06:30:00Z,29.5150,-94.5133,0.0,6.4,109.0,7.2,'11111222,11111222,11111222' 
TCOON,ioos:station:TCOON:518:1,2014-04-01T06:36:00Z,29.5150,-94.5133,0.0,6.0,107.0,7.4,'11111222,11111222,11111222' 
TCOON,ioos:station:TCOON:518:1,2014-04-01T06:42:00Z,29.5150,-94.5133,0.0,6.2,108.0,7.1,'11111222,11111222,11111222' 
TCOON,ioos:station:TCOON:518:1,2014-04-01T06:48:00Z,29.5150,-94.5133,0.0,6.0,106.0,7.3,'11111222,11111222,11111222' 
TCOON,ioos:station:TCOON:518:1,2014-04-01T06:54:00Z,29.5150,-94.5133,0.0,5.9,106.0,7.0,'11111222,11111222,11111222' 
TCOON,ioos:station:TCOON:518:1,2014-04-01T07:00:00Z,29.5150,-94.5133,0.0,5.9,106.0,7.0,'1111122,1111122,1111122' 
TCOON,ioos:station:TCOON:518:1,2014-04-01T07:06:00Z,29.5150,-94.5133,0.0,5.7,107.0,6.8,'11111222,11111222,11111222' 
TCOON,ioos:station:TCOON:518:1,2014-04-01T07:12:00Z,29.5150,-94.5133,0.0,5.2,107.0,6.1,'11111222,11111222,11111222' 
TCOON,ioos:station:TCOON:518:1,2014-04-01T07:18:00Z,29.5150,-94.5133,0.0,4.9,108.0,6.2,'11111222,11111222,11111222' 
TCOON,ioos:station:TCOON:518:1,2014-04-01T07:24:00Z,29.5150,-94.5133,0.0,4.3,107.0,5.7,'11111222,11111222,11111222' 
TCOON,ioos:station:TCOON:518:1,2014-04-01T07:30:00Z,29.5150,-94.5133,0.0,4.0,102.0,5.0,'11111222,11111222,11111222' 
TCOON,ioos:station:TCOON:518:1,2014-04-01T07:36:00Z,29.5150,-94.5133,0.0,3.8,105.0,4.9,'11111222,11111222,11111222' 
TCOON,ioos:station:TCOON:518:1,2014-04-01T07:42:00Z,29.5150,-94.5133,0.0,3.9,102.0,4.8,'11111222,11111222,11111222' 
TCOON,ioos:station:TCOON:518:1,2014-04-01T07:48:00Z,29.5150,-94.5133,0.0,4.1,105.0,4.8,'11111222,11111222,11111222' 
TCOON,ioos:station:TCOON:518:1,2014-04-01T07:54:00Z,29.5150,-94.5133,0.0,4.4,100.0,5.0,'11111222,11111222,11111222' 
TCOON,ioos:station:TCOON:518:1,2014-04-01T08:00:00Z,29.5150,-94.5133,0.0,4.4,100.0,5.0,'1111122,1111122,1111122' 
TCOON,ioos:station:TCOON:518:1,2014-04-01T08:06:00Z,29.5150,-94.5133,0.0,4.1,93.0,4.7,'11111222,11111222,11111222' 
TCOON,ioos:station:TCOON:518:1,2014-04-01T08:12:00Z,29.5150,-94.5133,0.0,4.0,93.0,4.9,'11111222,11111222,11111222' 
TCOON,ioos:station:TCOON:518:1,2014-04-01T08:18:00Z,29.5150,-94.5133,0.0,2.4,96.0,4.2,'11111222,11111222,11111222' 
TCOON,ioos:station:TCOON:518:1,2014-04-01T08:24:00Z,29.5150,-94.5133,0.0,3.4,98.0,4.2,'11111222,11111222,11111222' 
TCOON,ioos:station:TCOON:518:1,2014-04-01T08:30:00Z,29.5150,-94.5133,0.0,4.8,96.0,5.4,'11111222,11111222,11111222' 
TCOON,ioos:station:TCOON:518:1,2014-04-01T08:36:00Z,29.5150,-94.5133,0.0,3.4,98.0,5.1,'11111222,11111222,11111222' 
TCOON,ioos:station:TCOON:518:1,2014-04-01T08:42:00Z,29.5150,-94.5133,0.0,3.7,98.0,4.4,'11111222,11111222,11111222' 
TCOON,ioos:station:TCOON:518:1,2014-04-01T08:48:00Z,29.5150,-94.5133,0.0,3.9,100.0,4.6,'11111222,11111222,11111222' 
TCOON,ioos:station:TCOON:518:1,2014-04-01T08:54:00Z,29.5150,-94.5133,0.0,4.7,99.0,5.7,'11111222,11111222,11111222' 
TCOON,ioos:station:TCOON:518:1,2014-04-01T09:00:00Z,29.5150,-94.5133,0.0,4.7,99.0,5.7,'1111122,1111122,1111122' 
TCOON,ioos:station:TCOON:518:1,2014-04-01T09:06:00Z,29.5150,-94.5133,0.0,5.3,109.0,6.1,'11111222,11111222,11111222' 
TCOON,ioos:station:TCOON:518:1,2014-04-01T09:12:00Z,29.5150,-94.5133,0.0,5.5,105.0,6.1,'11111222,11111222,11111222' 
TCOON,ioos:station:TCOON:518:1,2014-04-01T09:18:00Z,29.5150,-94.5133,0.0,5.3,108.0,6.3,'11111222,11111222,11111222' 
TCOON,ioos:station:TCOON:518:1,2014-04-01T09:24:00Z,29.5150,-94.5133,0.0,5.7,105.0,7.0,'11111222,11111222,11111222' 
TCOON,ioos:station:TCOON:518:1,2014-04-01T09:30:00Z,29.5150,-94.5133,0.0,5.1,104.0,5.9,'11111222,11111222,11111222' 
TCOON,ioos:station:TCOON:518:1,2014-04-01T09:36:00Z,29.5150,-94.5133,0.0,5.6,106.0,6.7,'11111222,11111222,11111222' 
TCOON,ioos:station:TCOON:518:1,2014-04-01T09:42:00Z,29.5150,-94.5133,0.0,5.3,107.0,6.2,'11111222,11111222,11111222' 
TCOON,ioos:station:TCOON:518:1,2014-04-01T09:48:00Z,29.5150,-94.5133,0.0,5.6,110.0,6.6,'11111222,11111222,11111222' 
TCOON,ioos:station:TCOON:518:1,2014-04-01T09:54:00Z,29.5150,-94.5133,0.0,6.0,112.0,6.8,'11111222,11111222,11111222' 
TCOON,ioos:station:TCOON:518:1,2014-04-01T10:00:00Z,29.5150,-94.5133,0.0,6.0,112.0,6.8,'1111122,1111122,1111122' 
TCOON,ioos:station:TCOON:518:1,2014-04-01T10:06:00Z,29.5150,-94.5133,0.0,5.4,104.0,6.3,'11111222,11111222,11111222' 
TCOON,ioos:station:TCOON:518:1,2014-04-01T10:12:00Z,29.5150,-94.5133,0.0,5.0,101.0,5.9,'11111222,11111222,11111222' 
TCOON,ioos:station:TCOON:518:1,2014-04-01T10:18:00Z,29.5150,-94.5133,0.0,5.1,105.0,6.2,'11111222,11111222,11111222' 
TCOON,ioos:station:TCOON:518:1,2014-04-01T10:24:00Z,29.5150,-94.5133,0.0,4.7,102.0,5.4,'11111222,11111222,11111222' 
TCOON,ioos:station:TCOON:518:1,2014-04-01T10:30:00Z,29.5150,-94.5133,0.0,5.2,104.0,5.8,'11111222,11111222,11111222' 
TCOON,ioos:station:TCOON:518:1,2014-04-01T10:36:00Z,29.5150,-94.5133,0.0,5.4,100.0,5.9,'11111222,11111222,11111222' 
TCOON,ioos:station:TCOON:518:1,2014-04-01T10:42:00Z,29.5150,-94.5133,0.0,5.2,97.0,5.9,'11111222,11111222,11111222' 
TCOON,ioos:station:TCOON:518:1,2014-04-01T10:48:00Z,29.5150,-94.5133,0.0,5.4,101.0,6.2,'11111222,11111222,11111222' 
TCOON,ioos:station:TCOON:518:1,2014-04-01T10:54:00Z,29.5150,-94.5133,0.0,5.4,100.0,6.8,'11111222,11111222,11111222' 
TCOON,ioos:station:TCOON:518:1,2014-04-01T11:00:00Z,29.5150,-94.5133,0.0,5.4,100.0,6.8,'1111122,1111122,1111122' 
TCOON,ioos:station:TCOON:518:1,2014-04-01T11:06:00Z,29.5150,-94.5133,0.0,5.7,102.0,6.5,'11111222,11111222,11111222' 
TCOON,ioos:station:TCOON:518:1,2014-04-01T11:12:00Z,29.5150,-94.5133,0.0,6.1,105.0,7.1,'11111222,11111222,11111222' 
TCOON,ioos:station:TCOON:518:1,2014-04-01T11:18:00Z,29.5150,-94.5133,0.0,5.7,99.0,7.1,'11111222,11111222,11111222' 
TCOON,ioos:station:TCOON:518:1,2014-04-01T11:24:00Z,29.5150,-94.5133,0.0,5.1,102.0,6.0,'11111222,11111222,11111222' 
TCOON,ioos:station:TCOON:518:1,2014-04-01T11:30:00Z,29.5150,-94.5133,0.0,5.4,99.0,6.6,'11111222,11111222,11111222' 
TCOON,ioos:station:TCOON:518:1,2014-04-01T11:36:00Z,29.5150,-94.5133,0.0,5.5,102.0,6.3,'11111222,11111222,11111222' 
TCOON,ioos:station:TCOON:518:1,2014-04-01T11:42:00Z,29.5150,-94.5133,0.0,6.1,101.0,6.7,'11111222,11111222,11111222' 
TCOON,ioos:station:TCOON:518:1,2014-04-01T11:48:00Z,29.5150,-94.5133,0.0,6.1,103.0,7.0,'11111222,11111222,11111222' 
TCOON,ioos:station:TCOON:518:1,2014-04-01T11:54:00Z,29.5150,-94.5133,0.0,5.9,103.0,6.8,'11111222,11111222,11111222' 
TCOON,ioos:station:TCOON:518:1,2014-04-01T12:00:00Z,29.5150,-94.5133,0.0,5.9,103.0,6.8,'1111122,1111122,1111122' 
TCOON,ioos:station:TCOON:518:1,2014-04-01T12:06:00Z,29.5150,-94.5133,0.0,6.0,104.0,6.8,'11111222,11111222,11111222' 
TCOON,ioos:station:TCOON:518:1,2014-04-01T12:12:00Z,29.5150,-94.5133,0.0,6.1,107.0,6.8,'11111222,11111222,11111222' 
TCOON,ioos:station:TCOON:518:1,2014-04-01T12:18:00Z,29.5150,-94.5133,0.0,6.1,108.0,7.1,'11111222,11111222,11111222' 
TCOON,ioos:station:TCOON:518:1,2014-04-01T12:24:00Z,29.5150,-94.5133,0.0,5.6,104.0,7.1,'11111222,11111222,11111222' 
TCOON,ioos:station:TCOON:518:1,2014-04-01T12:30:00Z,29.5150,-94.5133,0.0,6.1,105.0,7.0,'11111222,11111222,11111222' 
TCOON,ioos:station:TCOON:518:1,2014-04-01T12:36:00Z,29.5150,-94.5133,0.0,6.0,103.0,7.4,'11111222,11111222,11111222' 
TCOON,ioos:station:TCOON:518:1,2014-04-01T12:42:00Z,29.5150,-94.5133,0.0,6.4,104.0,7.5,'11111222,11111222,11111222' 
TCOON,ioos:station:TCOON:518:1,2014-04-01T12:48:00Z,29.5150,-94.5133,0.0,5.9,102.0,7.0,'11111222,11111222,11111222' 
TCOON,ioos:station:TCOON:518:1,2014-04-01T12:54:00Z,29.5150,-94.5133,0.0,5.8,102.0,6.6,'11111222,11111222,11111222' 
TCOON,ioos:station:TCOON:518:1,2014-04-01T13:00:00Z,29.5150,-94.5133,0.0,5.8,102.0,6.6,'1111122,1111122,1111122' 
TCOON,ioos:station:TCOON:518:1,2014-04-01T13:06:00Z,29.5150,-94.5133,0.0,6.2,99.0,7.2,'11111222,11111222,11111222' 
TCOON,ioos:station:TCOON:518:1,2014-04-01T13:12:00Z,29.5150,-94.5133,0.0,5.5,97.0,7.4,'11111222,11111222,11111222' 
TCOON,ioos:station:TCOON:518:1,2014-04-01T13:18:00Z,29.5150,-94.5133,0.0,5.5,97.0,6.5,'11111222,11111222,11111222' 
TCOON,ioos:station:TCOON:518:1,2014-04-01T13:24:00Z,29.5150,-94.5133,0.0,5.7,99.0,7.1,'11111222,11111222,11111222' 
TCOON,ioos:station:TCOON:518:1,2014-04-01T13:30:00Z,29.5150,-94.5133,0.0,5.8,100.0,6.8,'11111222,11111222,11111222' 
TCOON,ioos:station:TCOON:518:1,2014-04-01T13:36:00Z,29.5150,-94.5133,0.0,5.6,101.0,6.4,'11111222,11111222,11111222' 
TCOON,ioos:station:TCOON:518:1,2014-04-01T13:42:00Z,29.5150,-94.5133,0.0,5.9,103.0,6.8,'11111222,11111222,11111222' 
TCOON,ioos:station:TCOON:518:1,2014-04-01T13:48:00Z,29.5150,-94.5133,0.0,5.7,104.0,6.4,'11111222,11111222,11111222' 
TCOON,ioos:station:TCOON:518:1,2014-04-01T13:54:00Z,29.5150,-94.5133,0.0,5.2,105.0,6.2,'11111222,11111222,11111222' 
TCOON,ioos:station:TCOON:518:1,2014-04-01T14:00:00Z,29.5150,-94.5133,0.0,5.2,105.0,6.2,'1111122,1111122,1111122' 
TCOON,ioos:station:TCOON:518:1,2014-04-01T14:06:00Z,29.5150,-94.5133,0.0,5.7,106.0,6.3,'11111222,11111222,11111222' 
TCOON,ioos:station:TCOON:518:1,2014-04-01T14:12:00Z,29.5150,-94.5133,0.0,5.9,108.0,6.5,'11111222,11111222,11111222' 
TCOON,ioos:station:TCOON:518:1,2014-04-01T14:18:00Z,29.5150,-94.5133,0.0,5.5,112.0,6.6,'11111222,11111222,11111222' 
TCOON,ioos:station:TCOON:518:1,2014-04-01T14:24:00Z,29.5150,-94.5133,0.0,5.8,111.0,6.8,'11111222,11111222,11111222' 
TCOON,ioos:station:TCOON:518:1,2014-04-01T14:30:00Z,29.5150,-94.5133,0.0,5.5,114.0,6.9,'11111222,11111222,11111222' 
TCOON,ioos:station:TCOON:518:1,2014-04-01T14:36:00Z,29.5150,-94.5133,0.0,5.1,117.0,6.1,'11111222,11111222,11111222' 
TCOON,ioos:station:TCOON:518:1,2014-04-01T14:42:00Z,29.5150,-94.5133,0.0,5.0,112.0,6.4,'11111222,11111222,11111222' 
TCOON,ioos:station:TCOON:518:1,2014-04-01T14:48:00Z,29.5150,-94.5133,0.0,5.2,111.0,6.2,'11111222,11111222,11111222' 
TCOON,ioos:station:TCOON:518:1,2014-04-01T14:54:00Z,29.5150,-94.5133,0.0,5.6,119.0,6.4,'11111222,11111222,11111222' 
TCOON,ioos:station:TCOON:518:1,2014-04-01T15:00:00Z,29.5150,-94.5133,0.0,5.6,119.0,6.4,'1111122,1111122,1111122' 
TCOON,ioos:station:TCOON:518:1,2014-04-01T15:06:00Z,29.5150,-94.5133,0.0,6.1,118.0,6.9,'11111222,11111222,11111222' 
TCOON,ioos:station:TCOON:518:1,2014-04-01T15:12:00Z,29.5150,-94.5133,0.0,6.2,120.0,7.1,'11111222,11111222,11111222' 
TCOON,ioos:station:TCOON:518:1,2014-04-01T15:18:00Z,29.5150,-94.5133,0.0,5.5,123.0,6.7,'11111222,11111222,11111222' 
TCOON,ioos:station:TCOON:518:1,2014-04-01T15:24:00Z,29.5150,-94.5133,0.0,5.8,122.0,6.9,'11111222,11111222,11111222' 
TCOON,ioos:station:TCOON:518:1,2014-04-01T15:30:00Z,29.5150,-94.5133,0.0,6.4,127.0,7.4,'11111222,11111222,11111222' 
TCOON,ioos:station:TCOON:518:1,2014-04-01T15:36:00Z,29.5150,-94.5133,0.0,6.2,127.0,7.2,'11111222,11111222,11111222' 
TCOON,ioos:station:TCOON:518:1,2014-04-01T15:42:00Z,29.5150,-94.5133,0.0,6.0,125.0,7.6,'11111222,11111222,11111222' 
TCOON,ioos:station:TCOON:518:1,2014-04-01T15:48:00Z,29.5150,-94.5133,0.0,6.5,127.0,8.1,'11111222,11111222,11111222' 
TCOON,ioos:station:TCOON:518:1,2014-04-01T15:54:00Z,29.5150,-94.5133,0.0,7.0,128.0,8.5,'11111222,11111222,11111222' 
TCOON,ioos:station:TCOON:518:1,2014-04-01T16:00:00Z,29.5150,-94.5133,0.0,7.0,128.0,8.5,'1111122,1111122,1111122' 
TCOON,ioos:station:TCOON:518:1,2014-04-01T16:06:00Z,29.5150,-94.5133,0.0,7.2,127.0,8.4,'11111222,11111222,11111222' 
TCOON,ioos:station:TCOON:518:1,2014-04-01T16:12:00Z,29.5150,-94.5133,0.0,6.9,126.0,9.1,'11111222,11111222,11111222' 
TCOON,ioos:station:TCOON:518:1,2014-04-01T16:18:00Z,29.5150,-94.5133,0.0,6.5,127.0,9.0,'11111222,11111222,11111222' 
TCOON,ioos:station:TCOON:518:1,2014-04-01T16:24:00Z,29.5150,-94.5133,0.0,7.1,125.0,8.6,'11111222,11111222,11111222' 
TCOON,ioos:station:TCOON:518:1,2014-04-01T16:30:00Z,29.5150,-94.5133,0.0,7.4,125.0,9.0,'11111222,11111222,11111222' 
TCOON,ioos:station:TCOON:518:1,2014-04-01T16:36:00Z,29.5150,-94.5133,0.0,6.8,127.0,8.9,'11111222,11111222,11111222' 
TCOON,ioos:station:TCOON:518:1,2014-04-01T16:42:00Z,29.5150,-94.5133,0.0,6.3,127.0,8.5,'11111222,11111222,11111222' 
TCOON,ioos:station:TCOON:518:1,2014-04-01T16:48:00Z,29.5150,-94.5133,0.0,6.2,129.0,8.3,'11111222,11111222,11111222' 
TCOON,ioos:station:TCOON:518:1,2014-04-01T16:54:00Z,29.5150,-94.5133,0.0,5.7,134.0,7.8,'11111222,11111222,11111222' 
TCOON,ioos:station:TCOON:518:1,2014-04-01T17:00:00Z,29.5150,-94.5133,0.0,5.7,134.0,7.8,'1111122,1111122,1111122' 
TCOON,ioos:station:TCOON:518:1,2014-04-01T17:06:00Z,29.5150,-94.5133,0.0,6.0,135.0,7.9,'11111222,11111222,11111222' 
TCOON,ioos:station:TCOON:518:1,2014-04-01T17:12:00Z,29.5150,-94.5133,0.0,5.3,137.0,7.4,'11111222,11111222,11111222' 
TCOON,ioos:station:TCOON:518:1,2014-04-01T17:18:00Z,29.5150,-94.5133,0.0,6.0,138.0,7.4,'11111222,11111222,11111222' 
TCOON,ioos:station:TCOON:518:1,2014-04-01T17:24:00Z,29.5150,-94.5133,0.0,5.2,139.0,6.7,'11111222,11111222,11111222' 
TCOON,ioos:station:TCOON:518:1,2014-04-01T17:30:00Z,29.5150,-94.5133,0.0,5.6,138.0,7.3,'11111222,11111222,11111222' 
TCOON,ioos:station:TCOON:518:1,2014-04-01T17:36:00Z,29.5150,-94.5133,0.0,6.4,135.0,7.3,'11111222,11111222,11111222' 
TCOON,ioos:station:TCOON:518:1,2014-04-01T17:42:00Z,29.5150,-94.5133,0.0,5.2,134.0,7.8,'11111222,11111222,11111222' 
TCOON,ioos:station:TCOON:518:1,2014-04-01T17:48:00Z,29.5150,-94.5133,0.0,5.0,137.0,8.0,'11111222,11111222,11111222' 
TCOON,ioos:station:TCOON:518:1,2014-04-01T17:54:00Z,29.5150,-94.5133,0.0,6.0,135.0,7.3,'11111222,11111222,11111222' 
TCOON,ioos:station:TCOON:518:1,2014-04-01T18:00:00Z,29.5150,-94.5133,0.0,6.0,135.0,7.3,'1111122,1111122,1111122' 
TCOON,ioos:station:TCOON:518:1,2014-04-01T18:06:00Z,29.5150,-94.5133,0.0,6.5,136.0,8.1,'11111222,11111222,11111222' 
TCOON,ioos:station:TCOON:518:1,2014-04-01T18:12:00Z,29.5150,-94.5133,0.0,7.6,133.0,8.8,'11111222,11111222,11111222' 
TCOON,ioos:station:TCOON:518:1,2014-04-01T18:18:00Z,29.5150,-94.5133,0.0,6.2,135.0,8.9,'11111222,11111222,11111222' 
TCOON,ioos:station:TCOON:518:1,2014-04-01T18:24:00Z,29.5150,-94.5133,0.0,7.0,134.0,9.3,'11111222,11111222,11111222' 
TCOON,ioos:station:TCOON:518:1,2014-04-01T18:30:00Z,29.5150,-94.5133,0.0,6.8,134.0,8.8,'11111222,11111222,11111222' 
TCOON,ioos:station:TCOON:518:1,2014-04-01T18:36:00Z,29.5150,-94.5133,0.0,6.8,136.0,9.0,'11111222,11111222,11111222' 
TCOON,ioos:station:TCOON:518:1,2014-04-01T18:42:00Z,29.5150,-94.5133,0.0,6.4,136.0,8.8,'11111222,11111222,11111222' 
TCOON,ioos:station:TCOON:518:1,2014-04-01T18:48:00Z,29.5150,-94.5133,0.0,6.1,136.0,7.6,'11111222,11111222,11111222' 
TCOON,ioos:station:TCOON:518:1,2014-04-01T18:54:00Z,29.5150,-94.5133,0.0,6.1,135.0,8.6,'11111222,11111222,11111222' 
TCOON,ioos:station:TCOON:518:1,2014-04-01T19:00:00Z,29.5150,-94.5133,0.0,6.1,135.0,8.6,'1111122,1111122,1111122' 
TCOON,ioos:station:TCOON:518:1,2014-04-01T19:06:00Z,29.5150,-94.5133,0.0,5.9,136.0,8.1,'11111222,11111222,11111222' 
TCOON,ioos:station:TCOON:518:1,2014-04-01T19:12:00Z,29.5150,-94.5133,0.0,6.1,133.0,8.1,'11111222,11111222,11111222' 
TCOON,ioos:station:TCOON:518:1,2014-04-01T19:18:00Z,29.5150,-94.5133,0.0,6.0,134.0,8.7,'11111222,11111222,11111222' 
TCOON,ioos:station:TCOON:518:1,2014-04-01T19:24:00Z,29.5150,-94.5133,0.0,5.9,134.0,7.6,'11111222,11111222,11111222' 
TCOON,ioos:station:TCOON:518:1,2014-04-01T19:30:00Z,29.5150,-94.5133,0.0,6.3,132.0,7.9,'11111222,11111222,11111222' 
TCOON,ioos:station:TCOON:518:1,2014-04-01T19:36:00Z,29.5150,-94.5133,0.0,7.0,130.0,8.8,'11111222,11111222,11111222' 
TCOON,ioos:station:TCOON:518:1,2014-04-01T19:42:00Z,29.5150,-94.5133,0.0,6.8,128.0,8.4,'11111222,11111222,11111222' 
TCOON,ioos:station:TCOON:518:1,2014-04-01T19:48:00Z,29.5150,-94.5133,0.0,6.4,130.0,8.8,'11111222,11111222,11111222' 
TCOON,ioos:station:TCOON:518:1,2014-04-01T19:54:00Z,29.5150,-94.5133,0.0,6.8,128.0,8.0,'11111222,11111222,11111222' 
TCOON,ioos:station:TCOON:518:1,2014-04-01T20:00:00Z,29.5150,-94.5133,0.0,6.8,128.0,8.0,'1111122,1111122,1111122' 
TCOON,ioos:station:TCOON:518:1,2014-04-01T20:06:00Z,29.5150,-94.5133,0.0,6.0,127.0,7.5,'11111222,11111222,11111222' 
TCOON,ioos:station:TCOON:518:1,2014-04-01T20:12:00Z,29.5150,-94.5133,0.0,6.0,126.0,7.5,'11111222,11111222,11111222' 
TCOON,ioos:station:TCOON:518:1,2014-04-01T20:18:00Z,29.5150,-94.5133,0.0,5.7,123.0,7.1,'11111222,11111222,11111222' 
TCOON,ioos:station:TCOON:518:1,2014-04-01T20:24:00Z,29.5150,-94.5133,0.0,6.6,120.0,7.9,'11111222,11111222,11111222' 